Date String (YYYY-MM-DD hh:mm:ss) UTC,Instrument flags,Ambient pressure (hPa),Sample flow (lpm),Bypass flow (lpm),Sample temperature (°C),Ambient temperature (°C),ASC tube jacket temperature (°C),LED temperature (°C),Box temperature (°C),Sample RH (%),Span deviation,Mass concentration (μg/m³),Mass concentration (μg/m³),Mass concentration (μg/m³)
DateTimeUTC,F1_M11,P_M11,Q1_M11,Q2_M11,T1_M11,T2_M11,T3_M11,T4_M11,T5_M11,U1_M11,ZSPAN_M11,X0_M11,X2_M11,X1_M11
2022-09-26 13:00:00,,0832.7,5.01,0.00,28.4,26.9,00.0,37.2,30.3,16.8,0002.2,0011.04,0006.70,0005.96
2022-09-26 13:01:00,,0832.7,4.99,0.00,28.4,26.8,00.0,37.2,30.3,16.8,0001.9,0012.24,0006.78,0006.00
2022-09-26 13:02:00,,0832.7,5.01,0.00,28.4,26.8,00.0,37.2,30.3,16.8,0001.8,0012.54,0006.76,0006.00
2022-09-26 13:03:00,,0832.7,4.98,0.00,28.4,26.9,00.0,37.2,30.3,16.8,0001.3,0012.31,0006.76,0006.01
2022-09-26 13:04:00,,0832.7,5.02,0.00,28.4,26.9,00.0,37.2,30.3,16.8,0001.2,0013.27,0006.74,0006.01
2022-09-26 13:05:00,,0832.7,4.99,0.00,28.4,26.9,00.0,37.2,30.3,16.8,0001.0,0013.41,0006.78,0006.02
2022-09-26 13:06:00,,0832.7,5.01,0.00,28.4,26.9,00.0,37.2,30.3,16.8,0000.0,0013.40,0006.76,0006.03
2022-09-26 13:07:00,,0832.7,4.99,0.00,28.4,26.9,00.0,37.2,30.3,16.8,0000.0,0013.83,0006.77,0006.06
2022-09-26 13:08:00,,0832.7,5.00,0.00,28.4,26.8,00.0,37.2,30.3,16.8,0000.0,0014.28,0006.81,0006.08
2022-09-26 13:09:00,,0832.7,4.98,0.00,28.4,26.8,00.0,37.2,30.3,16.8,0000.0,0014.26,0006.82,0006.10
2022-09-26 13:10:00,,0832.7,5.01,0.00,28.4,26.9,00.0,37.2,30.3,16.8,0000.0,0014.16,0006.82,0006.11
2022-09-26 13:11:00,,0832.7,5.00,0.00,28.5,26.9,00.0,37.2,30.3,16.8,0000.0,0013.88,0006.79,0006.12
2022-09-26 13:12:00,,0832.7,5.00,0.00,28.5,27.0,00.0,37.2,30.4,16.8,0000.0,0012.84,0006.72,0006.10
2022-09-26 13:13:00,,0832.7,5.01,0.00,28.5,27.0,00.0,37.2,30.4,16.9,0000.0,0012.44,0006.72,0006.12
2022-09-26 13:14:00,,0832.7,4.99,0.00,28.5,27.0,00.0,37.2,30.4,16.9,0000.0,0012.52,0006.75,0006.12
2022-09-26 13:15:00,,0832.7,5.01,0.00,28.5,27.0,00.0,37.3,30.4,16.8,0000.0,0011.94,0006.74,0006.10
2022-09-26 13:16:00,,0832.7,4.99,0.00,28.5,27.1,00.0,37.3,30.4,16.8,0000.0,0011.38,0006.68,0006.07
2022-09-26 13:17:00,,0832.6,5.01,0.00,28.5,27.1,00.0,37.3,30.4,16.8,0000.0,0011.19,0006.61,0006.04
2022-09-26 13:18:00,,0832.7,4.99,0.00,28.6,27.1,00.0,37.3,30.5,16.9,0000.0,0011.15,0006.62,0006.01
2022-09-26 13:19:00,,0832.7,4.99,0.00,28.6,27.2,00.0,37.3,30.5,16.8,0000.0,0010.67,0006.60,0005.99
2022-09-26 13:20:00,,0832.7,5.01,0.00,28.6,27.2,00.0,37.3,30.5,16.8,0000.0,0010.58,0006.59,0005.96
2022-09-26 13:21:00,,0832.7,4.99,0.00,28.6,27.3,00.0,37.3,30.5,16.8,0000.0,0010.54,0006.56,0005.94
2022-09-26 13:22:00,,0832.7,5.01,0.00,28.6,27.3,00.0,37.3,30.5,16.8,0000.0,0010.52,0006.52,0005.91
2022-09-26 13:23:00,,0832.7,5.00,0.00,28.6,27.3,00.0,37.3,30.6,17.0,0000.0,0010.75,0006.52,0005.90
2022-09-26 13:24:00,,0832.7,4.99,0.00,28.7,27.3,00.0,37.4,30.6,16.9,0000.0,0010.56,0006.48,0005.87
2022-09-26 13:25:00,,0832.7,5.01,0.00,28.7,27.4,00.0,37.4,30.6,16.7,0000.0,0010.40,0006.43,0005.85
2022-09-26 13:26:00,,0832.7,5.00,0.00,28.7,27.4,00.0,37.4,30.6,16.7,0000.0,0010.38,0006.40,0005.85
2022-09-26 13:27:00,,0832.7,5.01,0.00,28.7,27.4,00.0,37.4,30.6,16.8,0002.0,0010.27,0006.43,0005.86
2022-09-26 13:28:00,,0832.7,4.99,0.00,28.7,27.4,00.0,37.4,30.7,16.7,0001.5,0010.29,0006.45,0005.88
2022-09-26 13:29:00,,0832.7,5.00,0.00,28.7,27.4,00.0,37.4,30.7,16.6,0001.6,0010.14,0006.43,0005.90
2022-09-26 13:30:00,,0832.7,5.01,0.00,28.8,27.4,00.0,37.4,30.7,16.6,0001.2,0010.01,0006.42,0005.90
2022-09-26 13:31:00,,0832.7,4.99,0.00,28.8,27.4,00.0,37.4,30.7,16.5,0000.7,0009.97,0006.39,0005.89
2022-09-26 13:32:00,,0832.7,5.01,0.00,28.8,27.4,00.0,37.5,30.7,16.5,0000.1,0009.95,0006.37,0005.88
2022-09-26 13:33:00,,0832.7,5.02,0.00,28.8,27.4,00.0,37.5,30.7,16.5,0000.1,0009.98,0006.38,0005.88
2022-09-26 13:34:00,,0832.7,4.99,0.00,28.8,27.4,00.0,37.5,30.7,16.5,0000.3,0010.11,0006.38,0005.86
2022-09-26 13:35:00,,0832.7,5.01,0.00,28.8,27.4,00.0,37.5,30.7,16.5,-000.1,0009.96,0006.39,0005.86
2022-09-26 13:36:00,,0832.8,4.99,0.00,28.8,27.4,00.0,37.5,30.7,16.4,-000.0,0010.04,0006.43,0005.85
2022-09-26 13:37:00,,0832.8,5.01,0.00,28.8,27.5,00.0,37.5,30.7,16.4,-000.3,0010.27,0006.43,0005.83
2022-09-26 13:38:00,,0832.7,4.99,0.00,28.8,27.5,00.0,37.5,30.8,16.3,-000.0,0011.04,0006.38,0005.79
2022-09-26 13:39:00,,0832.7,5.00,0.00,28.9,27.5,00.0,37.5,30.8,16.3,0000.0,0011.19,0006.31,0005.71
2022-09-26 13:40:00,,0832.8,5.00,0.00,28.9,27.5,00.0,37.5,30.8,16.1,0000.0,0011.01,0006.21,0005.62
2022-09-26 13:41:00,,0832.8,4.99,0.00,28.9,27.5,00.0,37.6,30.8,16.0,0000.0,0010.82,0006.10,0005.55
2022-09-26 13:42:00,,0832.8,5.01,0.00,28.9,27.5,00.0,37.6,30.8,15.9,0000.0,0010.74,0005.99,0005.47
2022-09-26 13:43:00,,0832.8,4.99,0.00,28.9,27.6,00.0,37.6,30.8,15.8,0000.0,0010.68,0005.91,0005.39
2022-09-26 13:44:00,,0832.8,5.01,0.00,28.9,27.6,00.0,37.6,30.8,15.8,0000.0,0010.77,0005.84,0005.33
2022-09-26 13:45:00,,0832.8,4.99,0.00,28.9,27.6,00.0,37.6,30.8,15.8,0000.0,0010.77,0005.80,0005.27
2022-09-26 13:46:00,,0832.8,5.01,0.00,29.0,27.6,00.0,37.6,30.9,15.9,0000.0,0010.61,0005.71,0005.20
2022-09-26 13:47:00,,0832.8,4.99,0.00,29.0,27.6,00.0,37.6,30.9,16.1,0000.0,0010.50,0005.63,0005.16
2022-09-26 13:48:00,,0832.8,5.01,0.00,29.0,27.6,00.0,37.6,30.9,16.2,0000.0,0010.37,0005.61,0005.13
2022-09-26 13:49:00,,0832.7,4.99,0.00,29.0,27.7,00.0,37.7,30.9,16.4,0000.0,0009.97,0005.57,0005.12
2022-09-26 13:50:00,,0832.8,5.01,0.00,29.0,27.7,00.0,37.7,30.9,16.4,0000.0,0009.78,0005.59,0005.16
2022-09-26 13:51:00,,0832.8,4.99,0.00,29.0,27.7,00.0,37.7,30.9,16.4,0000.0,0010.16,0005.65,0005.21
2022-09-26 13:52:00,,0832.8,5.01,0.00,29.0,27.7,00.0,37.7,30.9,16.1,0000.0,0010.33,0005.69,0005.24
2022-09-26 13:53:00,,0832.7,4.99,0.00,29.0,27.7,00.0,37.7,31.0,15.9,0000.0,0010.39,0005.74,0005.24
2022-09-26 13:54:00,,0832.7,5.01,0.00,29.0,27.7,00.0,37.7,30.9,15.8,0000.0,0010.35,0005.74,0005.23
2022-09-26 13:55:00,,0832.7,4.99,0.00,29.1,27.7,00.0,37.7,31.0,16.1,0000.0,0010.16,0005.73,0005.22
2022-09-26 13:56:00,,0832.7,5.02,0.00,29.1,27.7,00.0,37.7,31.0,16.5,0000.0,0010.19,0005.71,0005.21
2022-09-26 13:57:00,,0832.8,4.99,0.00,29.1,27.7,00.0,37.7,31.0,16.6,0000.0,0010.25,0005.68,0005.20
2022-09-26 13:58:00,,0832.7,5.00,0.00,29.1,27.7,00.0,37.7,31.0,17.0,0000.0,0010.28,0005.65,0005.16
2022-09-26 13:59:00,,0832.7,4.98,0.00,29.1,27.7,00.0,37.8,31.0,17.2,0000.0,0010.25,0005.62,0005.13
